Weather in Krasny Yar

Russia / Republic of Mordovia     54°45′13″N   42°47′57″E
temp.,
°C
wind,
m/s
gust,
m/s
humid.,
%
clouds,
%
prec.,
mm/h
press.,
hPa
HPBL,
m
5 march, fri
fri500:00−4nnw1297100 0.3 99922
03:00−4nnw2397100 1.0 1001120
06:00−6nw3696100 0.3 1002179
09:00−7nw369485 0.3 1005258
12:00−4wnw358553 0.0 1007635
15:00−3wsw468556 0.1 1008744
18:00−6wsw479166 0.3 1010142
21:00−8w479376 0.4 1012147
6 march, sat
sat600:00−11wnw349233 0.0 101465
03:00−14nw239317 0.0 101621
06:00−16w11950 0.0 101620
09:00−12sw12930 0.0 101781
12:00−7w238736 0.0 1016328
15:00−6wsw348859 0.0 1015445
18:00−9wsw339233 0.0 101424
21:00−10wnw239646 0.1 101551
7 march, sun
sun700:00−14wnw229090 0.0 101420
03:00−16wsw239567 0.0 101421
06:00−15ssw479872 0.0 1012104
09:00−10ssw6129183 0.0 1009397
12:00−6sw81481100 0.0 1004825
15:00−5sw101793100 0.4 10001165
18:00−4sw81594100 2.3 9951033
21:00−4w61294100 3.9 995558
8 march, mon
mon800:00−8w51289100 0.4 997425
03:00−11sw5128869 0.4 999310
06:00−10sw71489100 0.1 997545
09:00−9sw81394100 0.9 995723
12:00−5wsw71194100 1.5 995901
15:00−6w81186100 2.4 9971017
18:00−9wnw61286100 0.3 1000507
21:00−9wnw6129299 0.4 1004720
9 march, tue
tue900:00−13wnw4109261 0.0 1006236
03:00−16wnw359633 0.0 100990
06:00−19wnw349710 0.0 101139
09:00−16wnw359443 0.0 1012224
12:00−12nw358687 0.0 1013633
15:00−11nw468494 0.1 1014838
18:00−15nw3492100 0.1 101582
21:00−18nw469797 0.1 1017101